Wind_Speed
6 24 27 21 19 18 13 16 14 14 14 15 19 23 22 19 16 11 11 11 6 7 4 5 5 3 7 8 10 12 14 16 20 23 24 21 18 17 19 19 18 18 16
25 22 28 24 22 23 17 14 11 13 15 15 17 19 23 21 18 14 14 12 12 9 8 7 5 5 4 6 7 6 9 15 18 23 25 26 23 21 20 19 20 17 16
20 23 30 21 23 25 23 25 20 16 13 15 16 21 23 22 19 17 13 12 11 10 9 11 14 14 12 13 13 13 14 14 16 18 23 25 26 26 25 23 24 23 26
30 30 32 33 36 37 25 26 30 30 26 17 15 20 26 25 22 18 13 10 12 13 16 19 20 23 23 22 23 23 20 22 23 27 28 29 31 31 29 27 31 34 32
28 34 40 39 37 39 30 28 32 35 30 27 20 20 22 20 27 21 17 5 13 20 26 26 26 28 29 26 25 22 21 23 26 30 34 33 33 30 32 30 31 34 33
6 15 26 32 36 36 35 34 35 33 33 33 31 29 28 26 25 30 16 13 20 22 23 39 34 31 31 30 25 22 24 27 31 34 32 35 33 32 31 29 32 35 35
10 12 17 20 24 25 25 25 26 29 32 34 34 31 32 26 22 20 16 20 27 36 30 40 42 43 37 34 30 28 24 26 26 25 16 19 21 22 23 25 26 31 32
12 13 16 21 22 22 24 24 23 25 31 34 33 33 34 29 28 20 14 37 49 45 44 43 51 47 47 40 38 36 33 28 26 22 21 17 22 19 19 21 27 30 34
19 17 19 22 19 19 19 23 26 23 24 30 35 37 36 34 43 38 40 37 40 40 47 47 56 55 52 51 45 42 39 36 35 32 33 26 23 28 27 30 31 32 36
21 19 19 19 20 20 18 17 21 26 26 25 31 39 42 47 52 53 48 46 50 45 41 41 47 53 51 48 45 48 41 34 38 37 38 33 30 29 29 32 39 42 44
25 25 23 20 18 20 22 23 22 21 22 26 29 34 42 45 54 59 55 54 57 51 47 45 46 48 53 59 61 55 49 45 45 41 39 40 36 33 34 35 37 41 45
21 22 24 25 25 24 23 24 26 26 25 25 27 32 36 42 47 56 59 60 62 56 58 51 47 41 45 52 57 56 55 54 51 46 46 47 48 45 42 42 43 47 51
18 20 22 23 23 24 24 24 25 25 26 28 31 32 33 39 45 48 53 59 62 62 62 60 59 57 59 54 50 54 56 58 53 51 45 47 51 51 51 51 47 43 45
23 24 25 27 27 28 31 31 32 29 27 28 31 34 37 39 38 41 46 51 55 59 61 59 58 63 66 67 66 66 64 59 57 55 57 55 53 52 53 45 44 43 47
33 33 32 33 34 34 33 35 36 37 37 37 35 35 36 38 37 40 43 44 46 49 56 56 60 61 64 67 65 64 61 63 64 59 62 58 58 53 53 54 51 46 47
37 38 37 38 39 38 38 39 39 39 39 42 43 42 41 40 39 39 40 40 40 43 47 52 55 59 62 62 62 60 59 56 58 54 59 56 58 57 52 51 50 45 44
42 42 40 41 40 39 38 38 40 37 38 39 41 44 45 42 42 42 44 44 45 47 48 47 49 51 54 54 54 57 57 57 54 58 47 48 50 50 48 47 45 42 45
45 45 44 44 41 39 37 37 37 37 35 32 33 37 39 41 44 48 48 49 50 49 50 49 50 53 53 53 51 51 51 52 53 49 50 50 46 45 45 44 46 47 49
48 47 47 47 44 40 40 40 38 39 40 42 42 40 40 42 46 49 51 53 55 55 52 51 54 53 54 53 52 49 52 50 49 46 45 47 46 45 49 48 49 50 48
49 47 49 49 46 44 43 45 45 45 46 48 51 51 51 50 52 55 58 58 58 59 58 57 56 57 52 53 56 50 52 48 42 40 42 42 46 46 47 48 46 47 46
48 49 50 47 46 46 47 47 47 48 48 49 51 52 52 53 55 57 58 59 60 60 61 60 60 59 58 54 55 50 48 45 43 42 40 41 45 46 43 39 42 43 36
49 49 49 46 46 47 48 46 45 45 46 46 48 49 50 51 54 55 54 56 57 59 60 57 54 56 57 55 56 54 52 52 49 48 42 42 43 44 42 40 37 36 32
52 54 52 50 50 51 50 50 48 47 48 48 49 52 52 53 55 56 57 57 58 58 58 58 58 57 56 53 54 54 54 52 52 51 44 42 43 39 32 33 33 33 33
56 54 52 51 52 53 53 53 54 53 52 53 52 52 54 54 56 55 56 56 52 47 45 48 46 46 47 49 54 55 54 54 54 45 45 42 45 40 35 34 33 30 30
53 52 53 55 56 56 58 59 60 61 60 57 55 55 55 55 56 55 54 44 40 39 41 33 33 35 39 44 48 49 50 46 50 47 46 43 39 34 32 31 30 29 28
53 55 57 59 60 62 62 63 65 65 64 63 61 59 56 55 53 49 41 35 35 33 27 24 28 31 36 40 38 37 31 32 39 46 45 42 35 30 27 28 29 34 33
Wind_Direction
273 293 284 279 279 279 277 264 242 233 227 231 235 235 238 240 236 228 263 273 296 334 353 34 32 307 276 266 255 244 245 245 231 233 237 247 257 281 297 298 244 257 261
257 270 269 275 266 270 259 244 231 232 227 221 223 227 232 230 221 232 260 264 260 282 291 289 328 319 317 309 314 296 273 256 244 237 240 251 261 279 288 290 247 248 271
222 251 271 270 265 267 268 238 233 238 248 237 223 223 220 230 236 230 239 263 264 263 274 288 297 300 302 295 286 286 281 279 272 262 253 255 263 272 278 283 256 258 265
217 232 251 266 270 275 272 257 239 249 249 247 236 229 227 227 228 221 231 248 264 279 289 288 286 287 292 290 289 286 282 285 284 268 263 261 263 268 278 280 263 262 266
238 240 249 260 262 267 269 263 245 250 249 250 238 235 234 235 229 220 204 240 284 294 296 298 294 291 288 286 280 280 284 286 302 299 268 260 261 265 276 276 266 265 269
244 244 254 263 264 266 264 256 256 245 241 241 240 237 233 236 225 211 204 211 266 265 283 278 285 288 287 285 276 271 283 293 290 302 282 263 257 256 262 269 266 268 272
317 289 279 281 275 271 270 266 258 248 243 242 238 233 227 226 206 197 195 244 246 251 263 260 279 276 277 275 274 278 281 299 293 305 285 265 244 249 248 261 267 274 278
319 304 285 281 279 277 274 275 271 259 249 241 235 226 218 206 175 177 238 269 267 249 253 245 262 263 268 270 273 278 282 281 290 282 276 265 248 250 249 262 271 278 287
299 286 286 290 290 284 280 274 267 258 256 245 235 228 214 201 194 211 243 245 250 254 247 260 251 254 258 268 265 266 275 275 280 286 278 276 263 249 263 283 285 281 288
280 269 276 277 288 289 286 276 271 265 253 250 239 230 221 209 214 218 230 231 230 235 248 256 257 258 258 264 264 265 272 269 270 275 273 267 267 267 269 279 278 282 286
292 289 284 281 273 271 276 280 280 277 270 256 245 238 235 230 220 227 231 232 232 237 240 247 257 265 267 266 269 269 270 268 274 273 267 270 269 265 272 277 283 284 288
283 286 285 288 287 280 275 268 267 266 268 268 263 248 242 241 237 234 236 237 236 245 244 248 250 252 264 267 269 268 269 268 268 262 265 269 268 271 272 275 282 282 288
292 291 288 289 289 287 283 279 275 270 268 267 264 262 255 246 246 246 245 247 247 247 248 252 250 251 251 258 267 270 266 268 266 262 270 268 268 271 273 279 281 281 291
310 308 307 302 295 287 283 280 280 275 270 265 265 266 261 258 254 254 254 252 250 250 254 255 259 258 257 259 262 266 268 263 262 264 269 271 271 273 272 275 277 283 288
310 308 301 296 295 293 288 284 277 272 273 274 271 269 269 267 261 256 254 256 256 256 257 255 255 258 261 261 262 262 264 264 263 263 264 266 270 271 268 270 275 282 285
304 304 299 298 300 298 296 295 292 285 273 265 266 267 269 272 275 273 270 268 264 260 256 254 255 256 258 262 263 262 260 262 259 259 259 264 262 264 266 270 274 277 282
306 306 303 303 301 300 296 296 296 293 286 279 270 264 264 269 270 273 276 276 274 272 269 265 259 261 258 262 262 262 257 258 259 252 255 258 257 262 264 266 270 271 278
304 303 302 302 302 302 298 295 294 293 292 286 279 273 268 269 272 271 274 273 273 272 268 264 263 262 262 260 258 260 260 257 258 259 258 257 255 256 259 265 267 273 277
302 299 299 301 299 298 299 296 294 287 285 283 282 275 273 274 274 275 274 275 272 268 266 264 261 263 261 254 254 257 259 256 260 258 259 257 252 253 257 262 266 271 278
299 297 298 299 297 295 293 294 294 291 287 284 280 279 278 276 275 276 276 276 273 271 268 265 265 259 262 253 250 253 257 254 256 259 259 257 250 251 256 259 265 268 279
296 297 296 294 293 293 294 294 293 292 289 286 284 283 282 281 279 279 278 278 275 273 269 267 264 259 257 258 243 243 247 248 256 258 262 253 248 247 252 255 262 271 273
295 298 298 294 295 297 297 295 293 293 294 293 291 290 288 285 283 281 278 277 273 270 270 266 264 256 250 255 243 238 242 248 256 257 256 245 244 241 248 256 265 267 267
298 301 298 294 295 298 299 296 293 293 293 293 293 292 292 291 289 283 283 280 276 271 268 265 261 254 251 250 240 238 241 249 255 255 244 239 234 233 244 252 255 257 264
300 298 296 295 296 298 298 296 294 293 293 293 293 293 292 293 292 287 285 283 274 267 263 264 261 251 245 239 239 241 244 253 253 249 227 226 226 234 237 243 251 256 264
297 296 296 296 297 297 297 296 296 295 294 292 292 295 293 291 292 291 289 275 264 265 266 259 248 238 238 237 240 249 253 251 235 232 216 215 221 228 232 240 246 254 268
298 298 298 297 297 295 295 294 293 292 291 290 291 293 293 292 294 292 280 263 265 263 249 239 235 238 244 252 255 252 240 227 212 204 208 212 211 225 241 249 260 262 265
Height
10946 10946 10946 10949 10951 10953 10954 10957 10957 10957 10956 10958 10960 10963 10967 10970 10973 10974 10975 10976 10976 10975 10975 10973 10973 10972 10972 10972 10973 10974 10974 10973 10973 10974 10975 10977 10977 10977 10976 10974 10972 10971 10971
10950 10943 10942 10943 10946 10949 10951 10954 10954 10953 10953 10953 10955 10958 10961 10963 10966 10968 10971 10972 10972 10973 10972 10972 10971 10972 10972 10972 10971 10970 10970 10970 10969 10970 10971 10971 10971 10972 10971 10970 10967 10966 10964
10935 10932 10933 10937 10940 10942 10944 10947 10948 10949 10950 10949 10950 10952 10955 10958 10960 10962 10966 10967 10969 10970 10970 10971 10970 10969 10969 10969 10969 10968 10967 10967 10967 10966 10966 10965 10965 10964 10964 10964 10962 10960 10958
10933 10933 10931 10932 10933 10934 10937 10937 10939 10941 10943 10945 10946 10947 10949 10952 10955 10959 10961 10963 10965 10966 10967 10967 10967 10966 10965 10964 10964 10963 10962 10962 10962 10960 10959 10958 10957 10957 10957 10956 10955 10953 10952
10927 10928 10927 10927 10926 10925 10928 10928 10930 10934 10936 10938 10942 10944 10945 10947 10950 10952 10955 10957 10962 10962 10958 10959 10960 10961 10959 10957 10957 10957 10956 10955 10953 10951 10949 10948 10949 10950 10949 10948 10946 10945 10945
10923 10922 10920 10919 10918 10917 10919 10919 10921 10923 10924 10927 10932 10936 10938 10940 10942 10946 10950 10954 10959 10957 10950 10951 10951 10953 10953 10950 10949 10949 10949 10947 10945 10941 10938 10938 10939 10940 10941 10941 10940 10939 10938
10920 10916 10915 10914 10912 10911 10910 10910 10911 10913 10915 10919 10923 10928 10931 10934 10937 10947 10952 10952 10949 10944 10945 10944 10937 10945 10947 10944 10941 10941 10941 10939 10937 10935 10932 10931 10931 10932 10932 10932 10932 10931 10929
10914 10913 10912 10910 10907 10904 10903 10903 10905 10906 10908 10912 10916 10919 10922 10928 10935 10942 10947 10943 10939 10936 10932 10931 10932 10934 10936 10936 10935 10934 10934 10933 10931 10930 10929 10927 10927 10927 10927 10926 10924 10922 10920
10908 10906 10905 10902 10899 10898 10896 10896 10897 10899 10900 10902 10906 10909 10916 10921 10922 10921 10926 10922 10927 10926 10925 10924 10923 10922 10921 10925 10925 10925 10926 10925 10924 10924 10924 10922 10921 10921 10920 10918 10916 10913 10909
10904 10902 10900 10897 10893 10892 10891 10891 10891 10890 10892 10894 10896 10900 10905 10908 10903 10901 10907 10913 10914 10916 10915 10915 10913 10910 10911 10911 10912 10915 10916 10915 10915 10915 10915 10914 10913 10912 10911 10910 10908 10905 10901
10895 10893 10891 10891 10889 10888 10887 10886 10885 10884 10883 10884 10887 10889 10892 10895 10898 10894 10894 10897 10902 10903 10904 10906 10904 10902 10896 10896 10898 10903 10905 10906 10906 10906 10905 10904 10903 10902 10900 10899 10897 10895 10891
10889 10887 10885 10884 10882 10882 10881 10881 10879 10878 10877 10876 10876 10878 10881 10881 10880 10880 10881 10883 10885 10886 10889 10892 10893 10890 10884 10883 10883 10887 10892 10893 10895 10895 10895 10893 10892 10891 10889 10887 10886 10884 10880
10884 10882 10880 10878 10875 10874 10873 10872 10871 10870 10869 10868 10867 10866 10867 10869 10868 10868 10868 10867 10867 10871 10873 10878 10877 10875 10872 10871 10873 10873 10875 10879 10880 10882 10883 10883 10881 10879 10878 10876 10876 10874 10869
10875 10873 10871 10869 10868 10866 10864 10861 10859 10860 10859 10858 10857 10856 10855 10854 10857 10857 10855 10855 10856 10858 10859 10862 10856 10855 10854 10853 10857 10860 10860 10863 10866 10869 10869 10869 10868 10867 10865 10863 10863 10863 10858
10864 10862 10861 10859 10857 10855 10854 10852 10850 10849 10848 10846 10846 10845 10843 10841 10843 10843 10843 10843 10843 10844 10843 10844 10841 10840 10837 10837 10841 10845 10846 10846 10848 10851 10854 10855 10855 10854 10853 10851 10850 10850 10846
10855 10854 10852 10849 10846 10844 10841 10838 10837 10836 10835 10834 10833 10832 10831 10829 10828 10827 10827 10828 10830 10830 10829 10827 10825 10824 10823 10822 10826 10829 10831 10830 10832 10834 10837 10838 10839 10841 10840 10839 10838 10837 10835
10845 10842 10840 10837 10834 10832 10829 10827 10821 10819 10818 10817 10818 10817 10817 10816 10815 10813 10812 10812 10812 10810 10808 10809 10808 10807 10807 10806 10809 10811 10814 10816 10816 10818 10819 10822 10824 10826 10826 10826 10826 10825 10823
10834 10830 10826 10823 10821 10818 10816 10813 10810 10805 10802 10801 10801 10799 10800 10801 10799 10797 10796 10795 10793 10792 10790 10791 10790 10789 10790 10791 10792 10796 10798 10800 10801 10803 10804 10808 10809 10812 10813 10813 10813 10813 10811
10821 10817 10813 10809 10807 10805 10803 10800 10797 10793 10790 10786 10784 10784 10785 10784 10781 10779 10777 10775 10773 10772 10772 10773 10773 10771 10771 10774 10776 10780 10783 10783 10787 10790 10791 10793 10795 10798 10799 10800 10800 10800 10800
10808 10805 10801 10797 10794 10791 10789 10786 10783 10780 10776 10773 10768 10767 10767 10767 10764 10760 10756 10755 10752 10749 10750 10751 10752 10751 10753 10755 10759 10762 10765 10769 10772 10775 10777 10780 10782 10785 10787 10788 10788 10788 10788
10796 10792 10788 10784 10781 10777 10774 10771 10767 10763 10759 10756 10752 10749 10747 10745 10742 10740 10736 10733 10730 10727 10727 10729 10730 10730 10733 10736 10740 10744 10749 10753 10757 10761 10763 10766 10769 10772 10775 10776 10776 10776 10777
10782 10778 10774 10770 10766 10763 10759 10755 10751 10747 10743 10740 10734 10731 10728 10726 10721 10718 10715 10712 10708 10706 10704 10706 10706 10707 10711 10715 10721 10727 10732 10737 10740 10744 10748 10751 10754 10759 10762 10764 10765 10765 10766
10767 10762 10758 10754 10751 10746 10742 10738 10734 10731 10727 10723 10719 10714 10708 10705 10700 10696 10692 10687 10685 10683 10682 10682 10683 10687 10690 10696 10703 10710 10715 10719 10721 10727 10732 10737 10741 10744 10749 10751 10754 10755 10755
10751 10746 10742 10738 10734 10729 10724 10720 10715 10712 10709 10705 10700 10696 10691 10685 10679 10674 10669 10665 10660 10660 10661 10662 10663 10666 10673 10679 10685 10692 10697 10701 10705 10711 10716 10722 10728 10734 10736 10740 10743 10744 10745
10736 10731 10726 10721 10716 10712 10705 10700 10695 10690 10685 10682 10679 10675 10671 10665 10659 10653 10648 10645 10645 10645 10645 10646 10650 10654 10660 10666 10672 10675 10677 10680 10685 10693 10703 10710 10717 10722 10726 10729 10731 10733 10734
10720 10714 10708 10702 10697 10690 10686 10680 10672 10666 10661 10657 10654 10652 10648 10643 10638 10632 10629 10631 10633 10633 10634 10638 10643 10646 10650 10652 10656 10659 10662 10665 10671 10682 10691 10699 10706 10712 10714 10718 10719 10721 10722